Погода Завитая

Погода Завитая : погода сейчас, прогноз погоды и архив. Всё, что Вы хотите узнать о погоде Завитая!

Поиск расширенной информации на нашем сайте:

Другие новости

Новости СМИ2

Главная страница сайта

Новости сайта

03.07.2017

Напоминаем, что на нашем специализированном сайте Метеоцентр.Азия вы можете получить высокодетализированные автоматические прогнозы погоды по пунктам России, СНГ и мира в авиационном формате (включающие направление и скорость ветра, видимость, явления погоды, количество и форму облачности, нижнюю и верхнюю границу облачности).


Погода Завитая - сегодня

Время (UTC), дата Ветер
(°,м/с) 
Видим.   Явления Облачность Т
(°С)
Тd
(°С)
f(%) Тe
(°С)
Pmin
(гПа)
dP
(гПа)
Po
(мм)
O2
(г/м3)
Тmin Tmax R s Состояние
почвы
12 21.09.17 170 (Ю) 20000 м    ясно 
+16.4 +8.9 61 +17  1007  0.7  734  278    +23.1       
15 21.09.17 160 (Ю) 20000 м    ясно 
+12.7 +8.8 77 +13  1008  0.5  735  281           
18 21.09.17 140 (ЮВ) 20000 м    ясно 
+10.7 +8 83 +11  1008.2  735  283           
21 21.09.17 130 (ЮВ) 20000 м    1/0 верхняя 
[Ci fib]
+10.1 +7.7 85 +10  1007.9  -0.3  735  284           
00 22.09.17 160 (Ю) 4{10}  20000 м    3/0 верхняя 
[Ci fib]
+15.9 +10.4 70 +18  1006.7  -0.6  734  278  +9.9        сухая 
03 22.09.17 120 (ЮВ) 4-13  20000 м    4/0 верхняя 
[Ci fib]
+21.5 +9.7 47 +23  1004.5  -1.6  733  272           
06 22.09.17 160 (Ю) 5{14}  20000 м    10/10 600 м кучево-дожд. 
[Cb calv]
+21.1 +8.1 43 +21  1003.2  -1.3  732  272           
09 22.09.17 160 (Ю) 3{12}  20000 м    5/3 600 м кучево-дожд., верхняя 
[Cb calv|Ci fib]
+19.4 +8.4 49 +20  1003.4  0.1  732  274           
12 22.09.17 170 (Ю) 3{10}  20000 м    8/8 600 м кучево-дожд. 
[Cb calv]
+17.8 +9.9 60 +20  1003.9  0.3  732  275    +25.3       
15 22.09.17 170 (Ю) 4000 м  слаб. ливневой дождь{гроза}  10/10 600 м кучево-дожд. 
[Cb calv]
+15.1 +11.5 79 +19  1004.8  0.6  733  278           
18 22.09.17 130 (ЮВ) 2{10}  20000 м  в посл. час ливневой дождь{гроза}  10/10 600 м кучево-дожд. 
[Cb calv]
+11.3 +9 86 +12  1004.9  -0.3  732  282           
21 22.09.17 190 (Ю) 20000 м    10/10 600 м кучево-дожд. 
[Cb calv]
+11.8 +10.4 91 +15  1004.9  732  281           
00 23.09.17 200 (Ю) 20000 м    10/8 600 м кучево-дожд., средняя 
[Cb calv|Ac trans]
+13.1 +10.5 84 +16  1004.9  0.2  733  280  +11.3      влажная 
03 23.09.17 210 (ЮЗ) 20000 м    9/4 1000 м средняя 
[Sc|Ac trans]
+14.9 +9.9 72 +17  1004.2  -0.4  732  278           
06 23.09.17 250 (З) 4{11}  20000 м    6/3 600 м кучево-дожд., верхняя 
[Cb calv|Cs]
+18.7 +1.7 32 +19  1003.5  -0.4  732  276           
09 23.09.17 140 (ЮВ) 20000 м    4/0 средняя, верхняя 
[Ac trans|Ci fib]
+16.3 +3.7 43 +18  1004  0.2  732  278           
12 23.09.17 110 (В) 20000 м    5/0 средняя, верхняя 
[Ac trans|Ci fib]
+12.5 +4.7 59 +13  1004.7  0.4  732  281    +19       
15 23.09.17 160 (Ю) 20000 м    3/0 средняя 
[Ac trans]
+11.5 +6 69 +11  1004  -0.8  732  282           
18 23.09.17 190 (Ю) 20000 м    3/0 средняя 
[Ac trans]
+9.8 +5.7 76 +11  1004.3  0.1  732  284           
21 23.09.17 140 (ЮВ) 20000 м    10/0 верхняя 
[Sc|Cs]
+8.1 +6.1 87 +7  1003.3  -1.2  731  285           
00 24.09.17 310 (СЗ) 4000 м  дымка  10/5 600 м кучево-дожд., верхняя 
[Cb calv|Cs]
+8.9 +6.2 83 +9  1003.6  0.4  731  284  +7.2        влажная 
03 24.09.17 310 (СЗ) 2000 м  слаб. ливневой дождь, в посл. час гроза  10/10 600 м кучево-дожд. 
[Cb calv]
+8.6 +7.2 91 +9  1001.7  -1.8  730  284           
06 24.09.17 320 (СЗ) 2000 м  ливневой дождь{гроза}  10/10 600 м кучево-дожд. 
[Cb calv]
+9 +7.8 92 +8  1001.4  -0.3  730  283           
09 24.09.17 280 (З) 20000 м  {ливн. осадки}  8/5 600 м кучево-дожд., средняя 
[Cb calv|Ac trans]
+9.3 +7.4 88 +9  1003.4  1.9  731  284           
12 24.09.17 250 (З) 20000 м  {ливн. осадки}  8/5 600 м кучево-дожд., средняя 
[Cb calv|Ac trans]
+7.8 +5.6 86 +8  1005.6  733  286    +9.7  19     
Время (UTC), дата Ветер
(°,м/с) 
Видим.   Явления Облачность Т
(°С)
Тd
(°С)
f(%) Тe
(°С)
Pmin
(гПа)
dP
(гПа)
Po
(мм)
O2
(г/м3)
Тmin Tmax R s Состояние
почвы

Для получения пояснительной информации подведите курсор к названию столбца.

ПОГОДА Завитая - архив

Всё, что Вы хотите узнать о погоде Завитая - удобно и подробно!

Выберите нужную дату (начиная с 1 января 2015* года) и нажмите кнопку "Найти".
Будут отображены архивные сводки погоды по пункту Завитая, начиная с указанной даты.


Отображать данные в формате CSV (для использования в таблицах Excel)


Внимание! Наш архив погоды предназначен исключительно для личного некоммерческого использования в познавательных целях. Если Вам необходимы официальные справки о состоянии погоды (для производственных, юридических, коммерческих и т.п. целей), обращайтесь в органы Росгидромета.

*Примечание: данная дата относится к архиву по метеостанциям СССР (Россия, СНГ, Балтия).
Архив по метеостанциям Зарубежной Европы и Азии (кроме Китая) хранится 10 дней, по другим регионам земного шара (Китай, Африка, Америка, Австралия, Океания) - 1 день.

Завитая - район местоположения метеостанции


Название, широта, долгота, высота метеостанции:
Завитая 50.1°ш. 129.5°д. 241 м над ур. моря [Российская Федерация]

Дополнительная информация

В oтличие oт бoльшинства пoгoдных сайтoв мы публикуем пoдрoбную метеoинфoрмацию в детальнoм прoфессиoнальнoм фoрмате.

Характеристики температуры и влажнoсти вoздуха измеряются на высoте 2 м в тени вдали oт зданий и деревьев.
Скoрoсть ветра измеряется на высoте 10 м (на урoвне рoста челoвека скoрoсть ветра ниже в 1.5-2 раза). Если метеoстанция нахoдится в гoрoде или в лесу, тo скoрoсть ветра занижена на 2-4 м/с пo сравнению с oткрытым местoм. Скoрoсть ветра над акватoриями крупных рек и oзёр, а также на вершинах хoлмoв на 2-5 м/с выше, чем в oбычных услoвиях.
Атмoсфернoе давление в разных тoчках местнoсти мoжет значительнo oтличаться oт давления на метеoстанции, в зависимoсти oт услoвий рельефа (при пoдъёме на 10 м давление пoнижается примернo на 1 мм рт.ст.).